RYR278B LPPR-LEAL

Flight info

Callsign RYR278B
Flight time N/A
Altitude 31000
Route PESUL DCT RIVRO DCT BARDI/N0456F320 M191 RIDAV/N0457F310 DCT DIPOL DCT NVS DCT NANDO DCT MINGU DCT ABOSI DCT MABUX
Aircraft B38M/M-SDE1FGHILORVWXY/HB1

Departure

Time 2026-05-07 14:46
Airport Francisco de Sá Carneiro Airport (LPPR)

Arrival

Time N/A
Airport Alicante-Elche Miguel Hernández Airport (LEAL)
Time Latitude Longitude Altitude Speed Heading
2026-05-07 14:24 41.23974 -8.67302 239 ft 0 kts 108°
2026-05-07 14:38 41.23979 -8.67320 239 ft 4 kts 108°
2026-05-07 14:38 41.23988 -8.67354 239 ft 4 kts 109°
2026-05-07 14:39 41.23995 -8.67383 239 ft 4 kts 112°
2026-05-07 14:39 41.24010 -8.67409 239 ft 4 kts 154°
2026-05-07 14:39 41.24033 -8.67415 239 ft 2 kts 181°
2026-05-07 14:39 41.24034 -8.67415 239 ft 1 kts 181°
2026-05-07 14:42 41.24024 -8.67416 239 ft 3 kts 182°
2026-05-07 14:43 41.23989 -8.67425 239 ft 7 kts 199°
2026-05-07 14:43 41.23933 -8.67469 239 ft 11 kts 212°
2026-05-07 14:43 41.23864 -8.67486 239 ft 10 kts 166°
2026-05-07 14:43 41.23784 -8.67465 239 ft 13 kts 169°
2026-05-07 14:44 41.23685 -8.67442 239 ft 16 kts 175°
2026-05-07 14:44 41.23623 -8.67518 239 ft 14 kts 256°
2026-05-07 14:44 41.23602 -8.67668 236 ft 20 kts 257°
2026-05-07 14:44 41.23619 -8.67809 231 ft 14 kts 320°
2026-05-07 14:45 41.23669 -8.67828 230 ft 0 kts 351°
2026-05-07 14:45 41.23757 -8.67850 227 ft 45 kts 348°
2026-05-07 14:45 41.24336 -8.68004 213 ft 122 kts 349°
2026-05-07 14:45 41.25365 -8.68252 354 ft 169 kts 353°
2026-05-07 14:46 41.26544 -8.68495 1070 ft 180 kts 351°
2026-05-07 14:46 41.27197 -8.68629 1425 ft 192 kts 350°
2026-05-07 14:46 41.29014 -8.69063 2340 ft 219 kts 348°
2026-05-07 14:46 41.30625 -8.69512 3083 ft 252 kts 348°
2026-05-07 14:47 41.32410 -8.69986 3887 ft 275 kts 349°
2026-05-07 14:47 41.33679 -8.70338 4720 ft 279 kts 346°
2026-05-07 14:47 41.35552 -8.70896 6091 ft 280 kts 347°
2026-05-07 14:47 41.37487 -8.71439 7196 ft 289 kts 349°
2026-05-07 14:48 41.39502 -8.71458 8265 ft 293 kts 14°
2026-05-07 14:48 41.41332 -8.70319 9559 ft 293 kts 38°
2026-05-07 14:48 41.42720 -8.68297 10081 ft 300 kts 65°
2026-05-07 14:48 41.43320 -8.65647 11055 ft 304 kts 87°
2026-05-07 14:49 41.43149 -8.62810 11779 ft 314 kts 106°
2026-05-07 14:49 41.42331 -8.60044 12420 ft 328 kts 122°
2026-05-07 14:49 41.40905 -8.57620 13158 ft 338 kts 139°
2026-05-07 14:49 41.39061 -8.55618 13863 ft 348 kts 143°
2026-05-07 14:50 41.37090 -8.53679 14670 ft 353 kts 146°
2026-05-07 14:50 41.35068 -8.51803 15452 ft 359 kts 147°
2026-05-07 14:50 41.32981 -8.49933 16209 ft 364 kts 148°
2026-05-07 14:50 41.30856 -8.48059 16942 ft 370 kts 148°
2026-05-07 14:51 41.28685 -8.46166 17687 ft 375 kts 148°
2026-05-07 14:51 41.26481 -8.44258 18363 ft 381 kts 148°
2026-05-07 14:51 41.24236 -8.42323 18952 ft 388 kts 148°
2026-05-07 14:51 41.21954 -8.40359 19509 ft 394 kts 148°
2026-05-07 14:52 41.19650 -8.38378 20086 ft 400 kts 148°
2026-05-07 14:52 41.17274 -8.36337 20699 ft 405 kts 148°
2026-05-07 14:52 41.14895 -8.34295 21286 ft 410 kts 148°
2026-05-07 14:52 41.12510 -8.32251 21872 ft 415 kts 148°
2026-05-07 14:53 41.10071 -8.30160 22437 ft 420 kts 148°
2026-05-07 14:53 41.07597 -8.28043 22987 ft 426 kts 148°
2026-05-07 14:53 41.05093 -8.25902 23515 ft 431 kts 148°
2026-05-07 14:53 41.02556 -8.23735 23977 ft 435 kts 148°
2026-05-07 14:54 41.00000 -8.21553 24466 ft 439 kts 149°
2026-05-07 14:54 40.97424 -8.19356 24963 ft 442 kts 149°
2026-05-07 14:54 40.94831 -8.17147 25396 ft 447 kts 149°
2026-05-07 14:54 40.92204 -8.14900 25856 ft 450 kts 148°
2026-05-07 14:55 40.89837 -8.12151 26334 ft 456 kts 131°
2026-05-07 14:55 40.88087 -8.08641 26763 ft 461 kts 115°
2026-05-07 14:55 40.87044 -8.04619 27130 ft 465 kts 103°
2026-05-07 14:55 40.86252 -8.00461 27536 ft 469 kts 103°
2026-05-07 14:56 40.85465 -7.96263 27929 ft 474 kts 103°
2026-05-07 14:56 40.84683 -7.92006 28326 ft 478 kts 103°
2026-05-07 14:56 40.83908 -7.87755 28723 ft 481 kts 103°
2026-05-07 14:56 40.83147 -7.83579 29092 ft 485 kts 103°
2026-05-07 14:57 40.82351 -7.79214 29479 ft 489 kts 103°
2026-05-07 14:57 40.81551 -7.74836 29844 ft 493 kts 103°
2026-05-07 14:57 40.80743 -7.70424 30165 ft 496 kts 103°
2026-05-07 14:57 40.79926 -7.65976 30487 ft 499 kts 103°
2026-05-07 14:58 40.79101 -7.61492 30782 ft 503 kts 103°
2026-05-07 14:58 40.78268 -7.56977 30856 ft 510 kts 103°
2026-05-07 14:58 40.76578 -7.47846 30849 ft 514 kts 103°
2026-05-07 14:59 40.74875 -7.38691 30851 ft 514 kts 103°
2026-05-07 14:59 40.73163 -7.29532 30865 ft 515 kts 103°
2026-05-07 15:00 40.71443 -7.20370 30851 ft 515 kts 103°
2026-05-07 15:00 40.69715 -7.11210 30853 ft 516 kts 103°
2026-05-07 15:01 40.67971 -7.02009 30850 ft 516 kts 103°
2026-05-07 15:01 40.66233 -6.92888 30857 ft 517 kts 103°
2026-05-07 15:02 40.64478 -6.83711 30859 ft 517 kts 103°
2026-05-07 15:02 40.62742 -6.74666 30860 ft 517 kts 103°
2026-05-07 15:03 40.61644 -6.65324 30859 ft 515 kts 95°
2026-05-07 15:03 40.60773 -6.55965 30857 ft 515 kts 95°
2026-05-07 15:04 40.59897 -6.46596 30872 ft 516 kts 94°
2026-05-07 15:04 40.59013 -6.37214 30871 ft 516 kts 94°
2026-05-07 15:05 40.58121 -6.27844 30874 ft 516 kts 95°
2026-05-07 15:05 40.57221 -6.18479 30873 ft 516 kts 94°